Location: Vale
(35.4830°N, 81.3830°W)
Time: 17:50:55
(UTC-04:00)

Cosmos 2237 Rocket - Visible Passes

Search period start: 26 July 2016 00:00
Search period end: 05 August 2016 00:00
Orbit: 833 x 852 km, 71.0° (Epoch: 25 July)

Date Brightness Start Highest point End Pass type
(mag) Time Alt. Az. Time Alt. Az. Time Alt. Az.
29 Jul 5.0 05:58:57 10° SE 06:01:46 14° E 06:04:35 10° ENE visible
30 Jul 5.0 05:44:26 10° SE 05:46:58 13° E 05:49:31 10° ENE visible
31 Jul 5.0 05:29:59 10° ESE 05:32:11 12° E 05:34:24 10° ENE visible
01 Aug 5.0 05:15:35 10° ESE 05:17:24 12° E 05:19:14 10° ENE visible
02 Aug 5.1 05:01:19 10° ESE 05:02:37 11° E 05:03:54 10° E visible
